Volver al catálogo

CZ-3C DEB

ActivoGTO
NORAD 40202·DEBRIS·🇨🇳 China

Lanzado Feb 24, 2012 desde Xichang Satellite Launch Center

Loading…

TLE

ObsoletoSource: Space-Track

Época: Sep 12, 2026, 17:54 UTC

1 40202U 12008M   26255.74592217  .00000098  00000-0  45263-3 0  9996
2 40202  19.6484 159.7821 7129396 258.2799  20.6512  2.36572919113021

Sigue CZ-3C DEB en tiempo real con AllMySat

Download on the App Store